Wetterdaten: Samstag, 23.11.2013
Datum Zeit Temperatur Luftfeuchte Luftdruck Regen Wind Richtung Richtung Taupunkt Windchill Windben
23.11.2013 00:00 1,6 C 89 % 1008,4 hPa 0,0 l/m 1,3 km/h (1 Bft) N-NW 337 -0,0 C 1,5 C 3,1 km/h (1 Bft)
23.11.2013 00:05 1,6 C 89 % 1008,4 hPa 0,0 l/m 1,3 km/h (1 Bft) N-NW 337 -0,0 C 1,5 C 3,1 km/h (1 Bft)
23.11.2013 00:10 1,6 C 89 % 1008,4 hPa 0,0 l/m 1,3 km/h (1 Bft) N-NW 337 -0,0 C 1,5 C 2,3 km/h (1 Bft)
23.11.2013 00:15 1,6 C 89 % 1008,4 hPa 0,0 l/m 1,0 km/h (0 Bft) W-NW 292 -0,0 C 1,6 C 0,0 km/h (0 Bft)
23.11.2013 00:20 1,6 C 89 % 1008,4 hPa 0,0 l/m 0,6 km/h (0 Bft) W-NW 292 -0,0 C 1,6 C 0,0 km/h (0 Bft)
23.11.2013 00:25 1,6 C 88 % 1008,4 hPa 0,0 l/m 0,0 km/h (0 Bft) N 360 -0,2 C 1,6 C 0,0 km/h (0 Bft)
23.11.2013 00:30 1,6 C 88 % 1008,4 hPa 0,0 l/m 0,0 km/h (0 Bft) N 360 -0,2 C 1,6 C 0,0 km/h (0 Bft)
23.11.2013 00:35 1,6 C 88 % 1008,4 hPa 0,0 l/m 0,0 km/h (0 Bft) NO 45 -0,2 C 1,5 C 0,0 km/h (0 Bft)
23.11.2013 00:40 1,6 C 88 % 1008,4 hPa 0,0 l/m 0,0 km/h (0 Bft) NO 45 -0,2 C 1,5 C 0,0 km/h (0 Bft)
23.11.2013 00:45 1,5 C 88 % 1008,2 hPa 0,0 l/m 0,0 km/h (0 Bft) NO 45 -0,3 C 1,5 C 0,0 km/h (0 Bft)
23.11.2013 00:50 1,5 C 88 % 1008,2 hPa 0,0 l/m 0,0 km/h (0 Bft) NO 45 -0,3 C 1,5 C 0,0 km/h (0 Bft)
23.11.2013 00:55 1,5 C 88 % 1008,2 hPa 0,0 l/m 0,0 km/h (0 Bft) NO 45 -0,3 C 1,4 C 0,0 km/h (0 Bft)
23.11.2013 01:00 1,5 C 88 % 1008,2 hPa 0,0 l/m 0,0 km/h (0 Bft) NO 45 -0,3 C 1,4 C 0,0 km/h (0 Bft)
23.11.2013 01:05 1,5 C 88 % 1008,3 hPa 0,0 l/m 0,0 km/h (0 Bft) NO 45 -0,3 C 1,4 C 0,0 km/h (0 Bft)
23.11.2013 01:10 1,5 C 88 % 1008,3 hPa 0,0 l/m 0,0 km/h (0 Bft) NO 45 -0,3 C 1,4 C 0,0 km/h (0 Bft)
23.11.2013 01:15 1,5 C 88 % 1008,3 hPa 0,0 l/m 0,0 km/h (0 Bft) NO 45 -0,3 C 1,4 C 0,0 km/h (0 Bft)
23.11.2013 01:20 1,5 C 88 % 1008,3 hPa 0,0 l/m 0,0 km/h (0 Bft) NO 45 -0,3 C 1,4 C 0,0 km/h (0 Bft)
23.11.2013 01:25 1,5 C 88 % 1008,2 hPa 0,0 l/m 0,0 km/h (0 Bft) NO 45 -0,3 C 1,4 C 0,0 km/h (0 Bft)
23.11.2013 01:30 1,4 C 88 % 1008,2 hPa 0,0 l/m 0,0 km/h (0 Bft) NO 45 -0,4 C 1,4 C 0,0 km/h (0 Bft)
23.11.2013 01:35 1,4 C 88 % 1008,2 hPa 0,0 l/m 0,0 km/h (0 Bft) NO 45 -0,4 C 1,3 C 0,0 km/h (0 Bft)
23.11.2013 01:40 1,4 C 88 % 1008,2 hPa 0,0 l/m 0,0 km/h (0 Bft) NO 45 -0,4 C 1,3 C 0,0 km/h (0 Bft)
23.11.2013 01:45 1,3 C 88 % 1008,2 hPa 0,0 l/m 0,0 km/h (0 Bft) W-NW 292 -0,5 C 1,3 C 0,0 km/h (0 Bft)
23.11.2013 01:48 1,3 C 88 % 1008,2 hPa 0,0 l/m 0,0 km/h (0 Bft) W-NW 292 -0,5 C 1,3 C 0,0 km/h (0 Bft)
23.11.2013 01:50 1,3 C 88 % 1008,2 hPa 0,0 l/m 0,0 km/h (0 Bft) N-NW 337 -0,5 C 1,2 C 0,0 km/h (0 Bft)
23.11.2013 01:55 1,3 C 88 % 1008,2 hPa 0,0 l/m 0,0 km/h (0 Bft) NO 45 -0,5 C 1,1 C 0,0 km/h (0 Bft)
23.11.2013 02:00 1,3 C 88 % 1008,4 hPa 0,0 l/m 0,0 km/h (0 Bft) NO 45 -0,5 C 1,1 C 0,0 km/h (0 Bft)
23.11.2013 02:05 1,3 C 88 % 1008,4 hPa 0,0 l/m 0,0 km/h (0 Bft) NO 45 -0,5 C 1,1 C 0,0 km/h (0 Bft)
23.11.2013 02:10 1,3 C 88 % 1008,4 hPa 0,0 l/m 0,0 km/h (0 Bft) NO 45 -0,5 C 1,1 C 0,0 km/h (0 Bft)
23.11.2013 02:15 1,3 C 88 % 1008,4 hPa 0,0 l/m 0,0 km/h (0 Bft) NO 45 -0,5 C 1,1 C 0,0 km/h (0 Bft)
23.11.2013 02:20 1,3 C 88 % 1008,3 hPa 0,0 l/m 0,0 km/h (0 Bft) NO 45 -0,5 C 1,1 C 0,0 km/h (0 Bft)
23.11.2013 02:25 1,3 C 88 % 1008,3 hPa 0,0 l/m 0,0 km/h (0 Bft) N-NO 22 -0,5 C 1,1 C 0,0 km/h (0 Bft)
23.11.2013 02:30 1,2 C 88 % 1008,3 hPa 0,0 l/m 0,0 km/h (0 Bft) N 360 -0,6 C 1,1 C 0,0 km/h (0 Bft)
23.11.2013 02:35 1,2 C 88 % 1008,3 hPa 0,0 l/m 0,0 km/h (0 Bft) N-NO 22 -0,6 C 1,1 C 0,0 km/h (0 Bft)
23.11.2013 02:40 1,2 C 88 % 1008,4 hPa 0,0 l/m 0,0 km/h (0 Bft) NO 45 -0,6 C 1,0 C 0,0 km/h (0 Bft)
23.11.2013 02:45 1,1 C 88 % 1008,4 hPa 0,0 l/m 0,0 km/h (0 Bft) NO 45 -0,7 C 1,0 C 0,0 km/h (0 Bft)
23.11.2013 02:50 1,1 C 88 % 1008,4 hPa 0,0 l/m 0,0 km/h (0 Bft) NO 45 -0,7 C 0,9 C 0,0 km/h (0 Bft)
23.11.2013 02:55 1,0 C 88 % 1008,4 hPa 0,0 l/m 0,0 km/h (0 Bft) NO 45 -0,8 C 0,9 C 0,0 km/h (0 Bft)
23.11.2013 03:00 1,0 C 88 % 1008,4 hPa 0,0 l/m 0,0 km/h (0 Bft) NO 45 -0,8 C 0,8 C 0,0 km/h (0 Bft)
23.11.2013 03:05 0,9 C 89 % 1008,4 hPa 0,0 l/m 0,0 km/h (0 Bft) NO 45 -0,7 C 0,8 C 0,0 km/h (0 Bft)
23.11.2013 03:10 0,9 C 89 % 1008,4 hPa 0,0 l/m 0,0 km/h (0 Bft) NO 45 -0,7 C 0,7 C 0,0 km/h (0 Bft)
23.11.2013 03:15 1,0 C 89 % 1008,4 hPa 0,0 l/m 0,0 km/h (0 Bft) N-NO 22 -0,6 C 0,7 C 0,0 km/h (0 Bft)
23.11.2013 03:20 1,0 C 89 % 1008,6 hPa 0,0 l/m 0,0 km/h (0 Bft) NO 45 -0,6 C 0,8 C 0,0 km/h (0 Bft)
23.11.2013 03:25 1,1 C 89 % 1008,6 hPa 0,0 l/m 0,0 km/h (0 Bft) NO 45 -0,5 C 0,8 C 0,0 km/h (0 Bft)
23.11.2013 03:30 1,1 C 89 % 1008,6 hPa 0,0 l/m 0,0 km/h (0 Bft) NO 45 -0,5 C 0,9 C 0,0 km/h (0 Bft)
23.11.2013 03:35 1,1 C 89 % 1008,6 hPa 0,0 l/m 0,0 km/h (0 Bft) N 360 -0,5 C 0,9 C 0,0 km/h (0 Bft)
23.11.2013 03:40 1,1 C 89 % 1008,4 hPa 0,0 l/m 0,0 km/h (0 Bft) N 360 -0,5 C 1,0 C 0,0 km/h (0 Bft)
23.11.2013 03:45 1,2 C 89 % 1008,4 hPa 0,0 l/m 0,0 km/h (0 Bft) N 360 -0,4 C 1,0 C 0,0 km/h (0 Bft)
23.11.2013 03:50 1,2 C 89 % 1008,4 hPa 0,0 l/m 0,0 km/h (0 Bft) N 360 -0,4 C 1,0 C 0,0 km/h (0 Bft)
23.11.2013 03:55 1,1 C 89 % 1008,4 hPa 0,0 l/m 0,0 km/h (0 Bft) W-NW 292 -0,5 C 1,0 C 0,0 km/h (0 Bft)
23.11.2013 04:00 1,1 C 89 % 1008,4 hPa 0,0 l/m 0,0 km/h (0 Bft) NO 45 -0,5 C 1,0 C 0,0 km/h (0 Bft)
23.11.2013 04:05 1,1 C 89 % 1008,4 hPa 0,0 l/m 0,0 km/h (0 Bft) NO 45 -0,5 C 1,0 C 0,0 km/h (0 Bft)
23.11.2013 04:10 1,2 C 89 % 1008,4 hPa 0,0 l/m 0,0 km/h (0 Bft) NO 45 -0,4 C 1,1 C 0,0 km/h (0 Bft)
23.11.2013 04:15 1,2 C 89 % 1008,4 hPa 0,0 l/m 0,0 km/h (0 Bft) NO 45 -0,4 C 1,1 C 0,0 km/h (0 Bft)
23.11.2013 04:20 1,2 C 89 % 1008,3 hPa 0,0 l/m 0,0 km/h (0 Bft) S-SO 157 -0,4 C 1,1 C 0,0 km/h (0 Bft)
23.11.2013 04:25 1,2 C 89 % 1008,3 hPa 0,0 l/m 0,0 km/h (0 Bft) S 180 -0,4 C 1,2 C 0,0 km/h (0 Bft)
23.11.2013 04:30 1,2 C 89 % 1008,3 hPa 0,0 l/m 0,0 km/h (0 Bft) S 180 -0,4 C 1,1 C 0,0 km/h (0 Bft)
23.11.2013 04:35 1,2 C 89 % 1008,3 hPa 0,0 l/m 0,0 km/h (0 Bft) S 180 -0,4 C 1,1 C 0,0 km/h (0 Bft)
23.11.2013 04:40 1,2 C 90 % 1008,2 hPa 0,0 l/m 0,0 km/h (0 Bft) S-SW 202 -0,3 C 1,1 C 0,0 km/h (0 Bft)
23.11.2013 04:45 1,2 C 90 % 1008,2 hPa 0,0 l/m 0,0 km/h (0 Bft) S 180 -0,3 C 1,1 C 0,0 km/h (0 Bft)
23.11.2013 04:50 1,2 C 90 % 1008,2 hPa 0,0 l/m 0,0 km/h (0 Bft) S 180 -0,3 C 1,1 C 0,0 km/h (0 Bft)
23.11.2013 04:55 1,2 C 90 % 1008,2 hPa 0,0 l/m 0,0 km/h (0 Bft) S 180 -0,3 C 1,1 C 0,0 km/h (0 Bft)
23.11.2013 05:00 1,2 C 90 % 1008,2 hPa 0,0 l/m 0,0 km/h (0 Bft) S 180 -0,3 C 1,1 C 0,0 km/h (0 Bft)
23.11.2013 05:05 1,2 C 90 % 1008,2 hPa 0,0 l/m 0,0 km/h (0 Bft) S 180 -0,3 C 1,1 C 0,0 km/h (0 Bft)
23.11.2013 05:10 1,2 C 90 % 1008,2 hPa 0,0 l/m 0,0 km/h (0 Bft) S 180 -0,3 C 1,1 C 0,0 km/h (0 Bft)
23.11.2013 05:15 1,2 C 90 % 1008,2 hPa 0,0 l/m 0,0 km/h (0 Bft) S-SW 202 -0,3 C 1,1 C 0,0 km/h (0 Bft)
23.11.2013 05:20 1,2 C 90 % 1008,2 hPa 0,0 l/m 0,0 km/h (0 Bft) S-SW 202 -0,3 C 1,1 C 0,0 km/h (0 Bft)
23.11.2013 05:25 1,2 C 90 % 1008,2 hPa 0,0 l/m 0,0 km/h (0 Bft) S-SW 202 -0,3 C 1,1 C 0,0 km/h (0 Bft)
23.11.2013 05:30 1,2 C 90 % 1008,2 hPa 0,0 l/m 0,0 km/h (0 Bft) S-SW 202 -0,3 C 1,1 C 0,0 km/h (0 Bft)
23.11.2013 05:35 1,2 C 90 % 1008,2 hPa 0,0 l/m 0,0 km/h (0 Bft) S-SW 202 -0,3 C 1,1 C 0,0 km/h (0 Bft)
23.11.2013 05:40 1,1 C 90 % 1008,2 hPa 0,0 l/m 0,0 km/h (0 Bft) S-SW 202 -0,4 C 1,1 C 0,0 km/h (0 Bft)
23.11.2013 05:45 1,1 C 90 % 1008,4 hPa 0,0 l/m 0,0 km/h (0 Bft) S-SW 202 -0,4 C 1,1 C 0,0 km/h (0 Bft)
23.11.2013 05:50 1,1 C 90 % 1008,4 hPa 0,0 l/m 0,0 km/h (0 Bft) S-SW 202 -0,4 C 1,0 C 0,0 km/h (0 Bft)
23.11.2013 05:55 0,9 C 90 % 1008,4 hPa 0,0 l/m 0,0 km/h (0 Bft) S-SW 202 -0,6 C 1,0 C 0,0 km/h (0 Bft)
23.11.2013 06:00 0,9 C 90 % 1008,4 hPa 0,0 l/m 0,0 km/h (0 Bft) S-SW 202 -0,6 C 1,0 C 0,0 km/h (0 Bft)
23.11.2013 06:05 0,7 C 90 % 1008,7 hPa 0,0 l/m 0,0 km/h (0 Bft) S-SW 202 -0,7 C 0,9 C 0,0 km/h (0 Bft)
23.11.2013 06:10 0,7 C 90 % 1008,7 hPa 0,0 l/m 0,0 km/h (0 Bft) S-SW 202 -0,7 C 0,8 C 0,0 km/h (0 Bft)
23.11.2013 06:15 0,5 C 90 % 1008,7 hPa 0,0 l/m 0,0 km/h (0 Bft) S-SW 202 -0,9 C 0,7 C 0,0 km/h (0 Bft)
23.11.2013 06:20 0,5 C 90 % 1008,7 hPa 0,0 l/m 0,0 km/h (0 Bft) S-SW 202 -0,9 C 0,6 C 0,0 km/h (0 Bft)
23.11.2013 06:25 0,4 C 90 % 1008,7 hPa 0,0 l/m 0,0 km/h (0 Bft) S-SW 202 -1,0 C 0,4 C 0,0 km/h (0 Bft)
23.11.2013 06:30 0,4 C 90 % 1008,7 hPa 0,0 l/m 0,0 km/h (0 Bft) S-SO 157 -1,0 C 0,4 C 0,0 km/h (0 Bft)
23.11.2013 06:35 0,4 C 91 % 1008,7 hPa 0,0 l/m 0,0 km/h (0 Bft) S-SO 157 -0,9 C 0,4 C 0,0 km/h (0 Bft)
23.11.2013 06:40 0,3 C 91 % 1008,7 hPa 0,0 l/m 0,0 km/h (0 Bft) S-SO 157 -1,0 C 0,3 C 0,0 km/h (0 Bft)
23.11.2013 06:45 0,3 C 91 % 1008,6 hPa 0,0 l/m 0,0 km/h (0 Bft) S-SO 157 -1,0 C 0,3 C 0,0 km/h (0 Bft)
23.11.2013 06:48 0,3 C 91 % 1008,6 hPa 0,0 l/m 0,0 km/h (0 Bft) S-SO 157 -1,0 C 0,3 C 0,0 km/h (0 Bft)
23.11.2013 06:50 0,3 C 91 % 1008,6 hPa 0,0 l/m 0,0 km/h (0 Bft) S-SO 157 -1,0 C 0,3 C 0,0 km/h (0 Bft)
23.11.2013 06:55 0,3 C 91 % 1008,6 hPa 0,0 l/m 0,0 km/h (0 Bft) S-SO 157 -1,0 C 0,3 C 0,0 km/h (0 Bft)
23.11.2013 07:00 0,3 C 91 % 1008,8 hPa 0,0 l/m 0,0 km/h (0 Bft) S-SO 157 -1,0 C 0,3 C 0,0 km/h (0 Bft)
23.11.2013 07:05 0,3 C 91 % 1008,8 hPa 0,0 l/m 0,0 km/h (0 Bft) S-SO 157 -1,0 C 0,3 C 0,0 km/h (0 Bft)
23.11.2013 07:10 0,3 C 91 % 1008,8 hPa 0,0 l/m 0,0 km/h (0 Bft) S-SO 157 -1,0 C 0,3 C 0,0 km/h (0 Bft)
23.11.2013 07:15 0,3 C 91 % 1008,8 hPa 0,0 l/m 0,0 km/h (0 Bft) S-SO 157 -1,0 C 0,3 C 0,0 km/h (0 Bft)
23.11.2013 07:20 0,3 C 92 % 1009,1 hPa 0,0 l/m 0,0 km/h (0 Bft) S-SO 157 -0,8 C 0,3 C 0,0 km/h (0 Bft)
23.11.2013 07:25 0,3 C 92 % 1009,1 hPa 0,0 l/m 0,0 km/h (0 Bft) S-SO 157 -0,8 C 0,3 C 0,0 km/h (0 Bft)
23.11.2013 07:30 0,3 C 92 % 1009,1 hPa 0,0 l/m 0,0 km/h (0 Bft) S-SO 157 -0,8 C 0,3 C 0,0 km/h (0 Bft)
23.11.2013 07:35 0,3 C 92 % 1009,1 hPa 0,0 l/m 0,0 km/h (0 Bft) S-SO 157 -0,8 C 0,3 C 0,0 km/h (0 Bft)
23.11.2013 07:40 0,3 C 92 % 1008,8 hPa 0,0 l/m 0,0 km/h (0 Bft) S-SO 157 -0,8 C 0,3 C 0,0 km/h (0 Bft)
23.11.2013 07:45 0,3 C 92 % 1008,8 hPa 0,0 l/m 0,0 km/h (0 Bft) S-SO 157 -0,8 C 0,3 C 0,0 km/h (0 Bft)
23.11.2013 07:50 0,3 C 92 % 1008,8 hPa 0,0 l/m 0,0 km/h (0 Bft) S-SO 157 -0,8 C 0,3 C 0,0 km/h (0 Bft)
23.11.2013 07:55 0,3 C 92 % 1008,8 hPa 0,0 l/m 0,0 km/h (0 Bft) S-SO 157 -0,8 C 0,3 C 0,0 km/h (0 Bft)
23.11.2013 08:00 0,3 C 92 % 1008,9 hPa 0,0 l/m 0,0 km/h (0 Bft) S-SO 157 -0,8 C 0,3 C 0,0 km/h (0 Bft)
23.11.2013 08:05 0,3 C 92 % 1008,9 hPa 0,0 l/m 0,0 km/h (0 Bft) S-SO 157 -0,8 C 0,3 C 0,0 km/h (0 Bft)
23.11.2013 08:10 0,3 C 92 % 1008,9 hPa 0,0 l/m 0,0 km/h (0 Bft) S-SO 157 -0,8 C 0,3 C 0,0 km/h (0 Bft)
23.11.2013 08:15 0,3 C 92 % 1008,9 hPa 0,0 l/m 0,0 km/h (0 Bft) S-SO 157 -0,8 C 0,3 C 0,0 km/h (0 Bft)
23.11.2013 08:20 0,3 C 92 % 1009,1 hPa 0,0 l/m 0,0 km/h (0 Bft) S-SO 157 -0,8 C 0,3 C 0,0 km/h (0 Bft)
23.11.2013 08:25 0,3 C 92 % 1009,1 hPa 0,0 l/m 0,0 km/h (0 Bft) S-SO 157 -0,8 C 0,3 C 0,0 km/h (0 Bft)
23.11.2013 08:30 0,3 C 92 % 1009,1 hPa 0,0 l/m 0,0 km/h (0 Bft) S-SO 157 -0,8 C 0,3 C 0,0 km/h (0 Bft)
23.11.2013 08:35 0,3 C 92 % 1009,1 hPa 0,0 l/m 0,0 km/h (0 Bft) S-SO 157 -0,8 C 0,3 C 0,0 km/h (0 Bft)
23.11.2013 08:40 0,3 C 93 % 1009,1 hPa 0,0 l/m 0,0 km/h (0 Bft) S-SO 157 -0,7 C 0,3 C 0,0 km/h (0 Bft)
23.11.2013 08:45 0,3 C 93 % 1009,1 hPa 0,0 l/m 0,0 km/h (0 Bft) S-SO 157 -0,7 C 0,3 C 0,0 km/h (0 Bft)
23.11.2013 08:50 0,4 C 93 % 1009,1 hPa 0,0 l/m 0,0 km/h (0 Bft) S-SO 157 -0,6 C 0,3 C 0,0 km/h (0 Bft)
23.11.2013 08:55 0,4 C 93 % 1009,1 hPa 0,0 l/m 0,0 km/h (0 Bft) S-SO 157 -0,6 C 0,3 C 0,0 km/h (0 Bft)
23.11.2013 09:00 0,3 C 93 % 1009,2 hPa 0,0 l/m 0,0 km/h (0 Bft) S-SO 157 -0,7 C 0,3 C 0,0 km/h (0 Bft)
23.11.2013 09:05 0,3 C 94 % 1009,2 hPa 0,0 l/m 0,0 km/h (0 Bft) S-SO 157 -0,5 C 0,3 C 0,0 km/h (0 Bft)
23.11.2013 09:10 0,4 C 94 % 1009,2 hPa 0,0 l/m 0,0 km/h (0 Bft) S-SO 157 -0,5 C 0,3 C 0,0 km/h (0 Bft)
23.11.2013 09:15 0,5 C 94 % 1009,2 hPa 0,0 l/m 0,0 km/h (0 Bft) S-SO 157 -0,4 C 0,3 C 0,0 km/h (0 Bft)
23.11.2013 09:20 0,5 C 94 % 1009,2 hPa 0,0 l/m 0,0 km/h (0 Bft) S-SO 157 -0,4 C 0,3 C 0,0 km/h (0 Bft)
23.11.2013 09:25 0,5 C 94 % 1009,2 hPa 0,0 l/m 0,0 km/h (0 Bft) S-SO 157 -0,4 C 0,3 C 0,0 km/h (0 Bft)
23.11.2013 09:30 0,6 C 95 % 1009,2 hPa 0,0 l/m 0,0 km/h (0 Bft) S-SO 157 -0,1 C 0,3 C 0,0 km/h (0 Bft)
23.11.2013 09:35 0,6 C 95 % 1009,2 hPa 0,0 l/m 0,0 km/h (0 Bft) S-SO 157 -0,1 C 0,3 C 0,0 km/h (0 Bft)
23.11.2013 09:40 0,7 C 95 % 1009,3 hPa 0,0 l/m 0,0 km/h (0 Bft) S-SO 157 -0,0 C 0,3 C 0,0 km/h (0 Bft)
23.11.2013 09:45 0,7 C 95 % 1009,3 hPa 0,0 l/m 0,0 km/h (0 Bft) S-SO 157 -0,0 C 0,3 C 0,0 km/h (0 Bft)
23.11.2013 09:50 0,7 C 95 % 1009,3 hPa 0,0 l/m 0,0 km/h (0 Bft) S-SO 157 -0,0 C 0,3 C 0,0 km/h (0 Bft)
23.11.2013 09:55 0,7 C 95 % 1009,3 hPa 0,0 l/m 0,0 km/h (0 Bft) S-SO 157 -0,0 C 0,3 C 0,0 km/h (0 Bft)
23.11.2013 10:00 0,7 C 95 % 1009,4 hPa 0,0 l/m 0,0 km/h (0 Bft) S-SO 157 -0,0 C 0,3 C 0,0 km/h (0 Bft)
23.11.2013 10:05 0,7 C 95 % 1009,4 hPa 0,0 l/m 0,0 km/h (0 Bft) S-SO 157 -0,0 C 0,3 C 0,0 km/h (0 Bft)
23.11.2013 10:10 0,8 C 95 % 1009,4 hPa 0,0 l/m 0,0 km/h (0 Bft) S-SO 157 0,1 C 0,3 C 0,0 km/h (0 Bft)
23.11.2013 10:15 0,7 C 95 % 1009,4 hPa 0,0 l/m 0,0 km/h (0 Bft) S-SO 157 -0,0 C 0,3 C 0,0 km/h (0 Bft)
23.11.2013 10:20 0,8 C 96 % 1009,4 hPa 0,0 l/m 0,0 km/h (0 Bft) S-SO 157 0,2 C 0,3 C 0,0 km/h (0 Bft)
23.11.2013 10:25 0,9 C 96 % 1009,6 hPa 0,0 l/m 0,0 km/h (0 Bft) S-SO 157 0,3 C 0,3 C 0,0 km/h (0 Bft)
23.11.2013 10:30 0,8 C 96 % 1009,6 hPa 0,0 l/m 0,0 km/h (0 Bft) S-SO 157 0,2 C 0,3 C 0,0 km/h (0 Bft)
23.11.2013 10:35 0,9 C 96 % 1009,6 hPa 0,0 l/m 0,0 km/h (0 Bft) S-SO 157 0,3 C 0,3 C 0,0 km/h (0 Bft)
23.11.2013 10:40 0,9 C 96 % 1009,6 hPa 0,0 l/m 0,0 km/h (0 Bft) S-SO 157 0,3 C 0,3 C 0,0 km/h (0 Bft)
23.11.2013 10:45 0,9 C 96 % 1009,5 hPa 0,0 l/m 0,0 km/h (0 Bft) S-SO 157 0,3 C 0,3 C 0,0 km/h (0 Bft)
23.11.2013 10:50 0,9 C 96 % 1009,5 hPa 0,0 l/m 0,0 km/h (0 Bft) S-SO 157 0,3 C 0,3 C 0,0 km/h (0 Bft)
23.11.2013 10:55 1,1 C 96 % 1009,5 hPa 0,0 l/m 0,0 km/h (0 Bft) S-SO 157 0,5 C 0,3 C 0,0 km/h (0 Bft)
23.11.2013 11:00 1,1 C 96 % 1009,5 hPa 0,0 l/m 0,0 km/h (0 Bft) S-SO 157 0,5 C 0,3 C 0,0 km/h (0 Bft)
23.11.2013 11:05 1,1 C 96 % 1009,6 hPa 0,0 l/m 0,0 km/h (0 Bft) S-SO 157 0,5 C 0,3 C 0,0 km/h (0 Bft)
23.11.2013 11:10 1,2 C 96 % 1009,6 hPa 0,0 l/m 0,0 km/h (0 Bft) S-SO 157 0,6 C 0,3 C 0,0 km/h (0 Bft)
23.11.2013 11:15 1,1 C 96 % 1009,6 hPa 0,0 l/m 0,0 km/h (0 Bft) S-SO 157 0,5 C 0,3 C 0,0 km/h (0 Bft)
23.11.2013 11:20 1,1 C 96 % 1009,6 hPa 0,0 l/m 0,0 km/h (0 Bft) S-SO 157 0,5 C 0,3 C 0,0 km/h (0 Bft)
23.11.2013 11:25 1,2 C 96 % 1009,5 hPa 0,0 l/m 0,0 km/h (0 Bft) S-SO 157 0,6 C 0,3 C 0,0 km/h (0 Bft)
23.11.2013 11:30 1,2 C 96 % 1009,5 hPa 0,0 l/m 0,0 km/h (0 Bft) S-SO 157 0,6 C 0,3 C 0,0 km/h (0 Bft)
23.11.2013 11:35 1,2 C 96 % 1009,5 hPa 0,0 l/m 0,0 km/h (0 Bft) S-SO 157 0,6 C 0,3 C 0,0 km/h (0 Bft)
23.11.2013 11:40 1,3 C 96 % 1009,5 hPa 0,0 l/m 0,0 km/h (0 Bft) S-SO 157 0,7 C 0,3 C 0,0 km/h (0 Bft)
23.11.2013 11:43 1,4 C 96 % 1009,4 hPa 0,0 l/m 0,0 km/h (0 Bft) S-SO 157 0,8 C 0,3 C 0,0 km/h (0 Bft)
23.11.2013 11:45 1,3 C 96 % 1009,4 hPa 0,0 l/m 0,0 km/h (0 Bft) S-SO 157 0,7 C 0,3 C 0,0 km/h (0 Bft)
23.11.2013 11:50 1,2 C 96 % 1009,4 hPa 0,0 l/m 0,0 km/h (0 Bft) S-SO 157 0,6 C 0,3 C 0,0 km/h (0 Bft)
23.11.2013 11:55 1,2 C 96 % 1009,4 hPa 0,0 l/m 0,0 km/h (0 Bft) S-SO 157 0,6 C 0,3 C 0,0 km/h (0 Bft)
23.11.2013 12:00 1,2 C 96 % 1009,3 hPa 0,0 l/m 0,0 km/h (0 Bft) S-SO 157 0,6 C 0,3 C 0,0 km/h (0 Bft)
23.11.2013 12:05 1,2 C 96 % 1009,3 hPa 0,0 l/m 0,0 km/h (0 Bft) S-SO 157 0,6 C 0,3 C 0,0 km/h (0 Bft)
23.11.2013 12:10 1,3 C 96 % 1009,3 hPa 0,0 l/m 0,0 km/h (0 Bft) S-SO 157 0,7 C 0,3 C 0,0 km/h (0 Bft)
23.11.2013 12:15 1,2 C 96 % 1009,3 hPa 0,0 l/m 0,0 km/h (0 Bft) S-SO 157 0,6 C 0,3 C 0,0 km/h (0 Bft)
23.11.2013 12:20 1,4 C 96 % 1009,2 hPa 0,0 l/m 0,0 km/h (0 Bft) S-SO 157 0,8 C 0,3 C 0,0 km/h (0 Bft)
23.11.2013 12:25 1,4 C 96 % 1009,2 hPa 0,0 l/m 0,0 km/h (0 Bft) S-SO 157 0,8 C 0,3 C 0,0 km/h (0 Bft)
23.11.2013 12:30 1,3 C 96 % 1009,2 hPa 0,0 l/m 0,0 km/h (0 Bft) S-SO 157 0,7 C 0,3 C 0,0 km/h (0 Bft)
23.11.2013 12:35 1,3 C 96 % 1009,2 hPa 0,0 l/m 0,0 km/h (0 Bft) S-SO 157 0,7 C 0,3 C 0,0 km/h (0 Bft)
23.11.2013 12:40 1,2 C 96 % 1009,2 hPa 0,0 l/m 0,0 km/h (0 Bft) S-SO 157 0,6 C 0,3 C 0,0 km/h (0 Bft)
23.11.2013 12:45 1,2 C 96 % 1009,2 hPa 0,0 l/m 0,0 km/h (0 Bft) S-SO 157 0,6 C 0,3 C 0,0 km/h (0 Bft)
23.11.2013 12:50 1,2 C 96 % 1009,2 hPa 0,0 l/m 0,0 km/h (0 Bft) S-SO 157 0,6 C 0,3 C 0,0 km/h (0 Bft)
23.11.2013 12:55 1,2 C 96 % 1009,2 hPa 0,0 l/m 0,0 km/h (0 Bft) S-SO 157 0,6 C 0,3 C 0,0 km/h (0 Bft)
23.11.2013 13:00 1,4 C 96 % 1009,4 hPa 0,0 l/m 0,0 km/h (0 Bft) S-SO 157 0,8 C 0,3 C 0,0 km/h (0 Bft)
23.11.2013 13:05 1,4 C 96 % 1009,4 hPa 0,0 l/m 0,0 km/h (0 Bft) S-SO 157 0,8 C 0,3 C 0,0 km/h (0 Bft)
23.11.2013 13:10 1,4 C 96 % 1009,4 hPa 0,0 l/m 0,0 km/h (0 Bft) S-SO 157 0,8 C 0,3 C 0,0 km/h (0 Bft)
23.11.2013 13:15 1,6 C 96 % 1009,4 hPa 0,0 l/m 0,0 km/h (0 Bft) S-SO 157 1,0 C 0,3 C 0,0 km/h (0 Bft)
23.11.2013 13:20 1,5 C 96 % 1009,4 hPa 0,0 l/m 0,0 km/h (0 Bft) S-SO 157 0,9 C 0,3 C 0,0 km/h (0 Bft)
23.11.2013 13:25 1,5 C 96 % 1009,4 hPa 0,0 l/m 0,0 km/h (0 Bft) S-SO 157 0,9 C 0,3 C 0,0 km/h (0 Bft)
23.11.2013 13:30 1,4 C 96 % 1009,4 hPa 0,0 l/m 0,0 km/h (0 Bft) S-SO 157 0,8 C 0,3 C 0,0 km/h (0 Bft)
23.11.2013 13:35 1,4 C 96 % 1009,4 hPa 0,0 l/m 0,0 km/h (0 Bft) S-SO 157 0,8 C 0,3 C 0,0 km/h (0 Bft)
23.11.2013 13:40 1,4 C 96 % 1009,3 hPa 0,0 l/m 0,0 km/h (0 Bft) S-SO 157 0,8 C 0,3 C 0,0 km/h (0 Bft)
23.11.2013 13:45 1,4 C 96 % 1009,3 hPa 0,0 l/m 0,0 km/h (0 Bft) S-SO 157 0,8 C 0,3 C 0,0 km/h (0 Bft)
23.11.2013 13:50 1,6 C 96 % 1009,3 hPa 0,0 l/m 0,0 km/h (0 Bft) S-SO 157 1,0 C 0,3 C 0,0 km/h (0 Bft)
23.11.2013 13:55 1,7 C 96 % 1009,3 hPa 0,0 l/m 0,0 km/h (0 Bft) S-SO 157 1,1 C 0,3 C 0,0 km/h (0 Bft)
23.11.2013 14:00 1,6 C 96 % 1009,2 hPa 0,0 l/m 0,0 km/h (0 Bft) S-SO 157 1,0 C 0,3 C 0,0 km/h (0 Bft)
23.11.2013 14:05 1,6 C 96 % 1009,2 hPa 0,0 l/m 0,0 km/h (0 Bft) S-SO 157 1,0 C 0,3 C 0,0 km/h (0 Bft)
23.11.2013 14:10 1,5 C 96 % 1009,2 hPa 0,0 l/m 0,0 km/h (0 Bft) S-SO 157 0,9 C 0,3 C 0,0 km/h (0 Bft)
23.11.2013 14:15 1,5 C 96 % 1009,2 hPa 0,0 l/m 0,0 km/h (0 Bft) S-SO 157 0,9 C 0,3 C 0,0 km/h (0 Bft)
23.11.2013 14:20 1,4 C 96 % 1009,2 hPa 0,0 l/m 0,0 km/h (0 Bft) S-SO 157 0,8 C 0,3 C 0,0 km/h (0 Bft)
23.11.2013 14:25 1,4 C 96 % 1009,2 hPa 0,0 l/m 0,0 km/h (0 Bft) S-SO 157 0,8 C 0,3 C 0,0 km/h (0 Bft)
23.11.2013 14:30 1,4 C 96 % 1009,2 hPa 0,0 l/m 0,0 km/h (0 Bft) S-SO 157 0,8 C 0,3 C 0,0 km/h (0 Bft)
23.11.2013 14:35 1,3 C 96 % 1009,2 hPa 0,0 l/m 0,0 km/h (0 Bft) S-SO 157 0,7 C 0,3 C 0,0 km/h (0 Bft)
23.11.2013 14:40 1,3 C 96 % 1009,4 hPa 0,0 l/m 0,0 km/h (0 Bft) S-SO 157 0,7 C 0,3 C 0,0 km/h (0 Bft)
23.11.2013 14:45 1,2 C 96 % 1009,4 hPa 0,0 l/m 0,0 km/h (0 Bft) S-SO 157 0,6 C 0,3 C 0,0 km/h (0 Bft)
23.11.2013 14:50 1,1 C 96 % 1009,4 hPa 0,0 l/m 0,0 km/h (0 Bft) S-SO 157 0,5 C 0,3 C 0,0 km/h (0 Bft)
23.11.2013 14:55 1,1 C 96 % 1009,4 hPa 0,0 l/m 0,0 km/h (0 Bft) S-SO 157 0,5 C 0,3 C 0,0 km/h (0 Bft)
23.11.2013 15:00 1,1 C 96 % 1009,4 hPa 0,0 l/m 0,0 km/h (0 Bft) S-SO 157 0,5 C 0,3 C 0,0 km/h (0 Bft)
23.11.2013 15:05 1,0 C 96 % 1009,5 hPa 0,0 l/m 0,0 km/h (0 Bft) S-SO 157 0,4 C 0,3 C 0,0 km/h (0 Bft)
23.11.2013 15:10 0,9 C 96 % 1009,5 hPa 0,0 l/m 0,0 km/h (0 Bft) S-SO 157 0,3 C 0,3 C 0,0 km/h (0 Bft)
23.11.2013 15:15 0,9 C 97 % 1009,5 hPa 0,0 l/m 0,0 km/h (0 Bft) S-SO 157 0,5 C 0,3 C 0,0 km/h (0 Bft)
23.11.2013 15:20 0,8 C 96 % 1009,5 hPa 0,0 l/m 0,0 km/h (0 Bft) S-SO 157 0,2 C 0,3 C 0,0 km/h (0 Bft)
23.11.2013 15:25 0,7 C 96 % 1009,5 hPa 0,0 l/m 0,0 km/h (0 Bft) S-SO 157 0,1 C 0,3 C 0,0 km/h (0 Bft)
23.11.2013 15:30 0,6 C 96 % 1009,5 hPa 0,0 l/m 0,0 km/h (0 Bft) S-SO 157 0,0 C 0,3 C 0,0 km/h (0 Bft)
23.11.2013 15:35 0,5 C 96 % 1009,5 hPa 0,0 l/m 0,0 km/h (0 Bft) S-SO 157 -0,1 C 0,3 C 0,0 km/h (0 Bft)
23.11.2013 15:40 0,5 C 96 % 1009,5 hPa 0,0 l/m 0,0 km/h (0 Bft) S-SO 157 -0,1 C 0,3 C 0,0 km/h (0 Bft)
23.11.2013 15:45 0,5 C 96 % 1009,6 hPa 0,0 l/m 0,0 km/h (0 Bft) S-SO 157 -0,1 C 0,3 C 0,0 km/h (0 Bft)
23.11.2013 15:50 0,5 C 96 % 1009,6 hPa 0,0 l/m 0,0 km/h (0 Bft) S-SO 157 -0,1 C 0,3 C 0,0 km/h (0 Bft)
23.11.2013 15:55 0,4 C 97 % 1009,6 hPa 0,0 l/m 0,0 km/h (0 Bft) S-SO 157 -0,0 C 0,3 C 0,0 km/h (0 Bft)
23.11.2013 16:00 0,4 C 97 % 1009,6 hPa 0,0 l/m 0,0 km/h (0 Bft) S-SO 157 -0,0 C 0,3 C 0,0 km/h (0 Bft)
23.11.2013 16:05 0,4 C 97 % 1009,6 hPa 0,0 l/m 0,0 km/h (0 Bft) S-SO 157 -0,0 C 0,3 C 0,0 km/h (0 Bft)
23.11.2013 16:10 0,4 C 97 % 1009,6 hPa 0,0 l/m 0,0 km/h (0 Bft) S-SO 157 -0,0 C 0,3 C 0,0 km/h (0 Bft)
23.11.2013 16:15 0,3 C 97 % 1009,6 hPa 0,0 l/m 0,0 km/h (0 Bft) S-SO 157 -0,1 C 0,3 C 0,0 km/h (0 Bft)
23.11.2013 16:20 0,3 C 97 % 1009,6 hPa 0,0 l/m 0,0 km/h (0 Bft) S-SO 157 -0,1 C 0,3 C 0,0 km/h (0 Bft)
23.11.2013 16:25 0,3 C 97 % 1009,6 hPa 0,0 l/m 0,0 km/h (0 Bft) S-SO 157 -0,1 C 0,3 C 0,0 km/h (0 Bft)
23.11.2013 16:30 0,3 C 97 % 1009,6 hPa 0,0 l/m 0,0 km/h (0 Bft) S-SO 157 -0,1 C 0,3 C 0,0 km/h (0 Bft)
23.11.2013 16:35 0,3 C 97 % 1009,6 hPa 0,0 l/m 0,0 km/h (0 Bft) S-SW 202 -0,1 C 0,2 C 0,0 km/h (0 Bft)
23.11.2013 16:40 0,2 C 97 % 1009,6 hPa 0,0 l/m 0,0 km/h (0 Bft) S-SW 202 -0,2 C 0,2 C 0,0 km/h (0 Bft)
23.11.2013 16:43 0,2 C 97 % 1010,8 hPa 0,0 l/m 0,0 km/h (0 Bft) S-SW 202 -0,2 C 0,2 C 0,0 km/h (0 Bft)
23.11.2013 16:45 0,2 C 97 % 1010,8 hPa 0,0 l/m 0,0 km/h (0 Bft) S-SW 202 -0,2 C 0,2 C 0,0 km/h (0 Bft)
23.11.2013 16:50 0,2 C 97 % 1010,8 hPa 0,0 l/m 0,0 km/h (0 Bft) S-SW 202 -0,2 C 0,2 C 0,0 km/h (0 Bft)
23.11.2013 16:55 0,2 C 97 % 1010,8 hPa 0,0 l/m 0,0 km/h (0 Bft) S-SW 202 -0,2 C 0,2 C 0,0 km/h (0 Bft)
23.11.2013 17:00 0,2 C 97 % 1011,1 hPa 0,0 l/m 0,0 km/h (0 Bft) S-SW 202 -0,2 C 0,2 C 0,0 km/h (0 Bft)
23.11.2013 17:05 0,2 C 97 % 1011,1 hPa 0,0 l/m 0,0 km/h (0 Bft) S-SW 202 -0,2 C 0,2 C 0,0 km/h (0 Bft)
23.11.2013 17:10 0,2 C 97 % 1011,1 hPa 0,0 l/m 0,0 km/h (0 Bft) S-SW 202 -0,2 C 0,2 C 0,0 km/h (0 Bft)
23.11.2013 17:15 0,3 C 97 % 1011,1 hPa 0,0 l/m 0,0 km/h (0 Bft) S-SW 202 -0,1 C 0,2 C 0,0 km/h (0 Bft)
23.11.2013 17:20 0,3 C 97 % 1011,6 hPa 0,0 l/m 0,0 km/h (0 Bft) S-SW 202 -0,1 C 0,2 C 0,0 km/h (0 Bft)
23.11.2013 17:25 0,3 C 97 % 1011,6 hPa 0,0 l/m 0,0 km/h (0 Bft) S-SW 202 -0,1 C 0,2 C 0,0 km/h (0 Bft)
23.11.2013 17:30 0,3 C 97 % 1011,6 hPa 0,0 l/m 0,0 km/h (0 Bft) S-SW 202 -0,1 C 0,2 C 0,0 km/h (0 Bft)
23.11.2013 17:35 0,2 C 97 % 1011,6 hPa 0,0 l/m 0,0 km/h (0 Bft) S-SW 202 -0,2 C 0,2 C 0,0 km/h (0 Bft)
23.11.2013 17:40 0,2 C 97 % 1011,8 hPa 0,0 l/m 0,0 km/h (0 Bft) S-SW 202 -0,2 C 0,2 C 0,0 km/h (0 Bft)
23.11.2013 17:45 0,2 C 97 % 1011,8 hPa 0,0 l/m 0,0 km/h (0 Bft) S-SW 202 -0,2 C 0,2 C 0,0 km/h (0 Bft)
23.11.2013 17:50 0,2 C 97 % 1011,8 hPa 0,0 l/m 0,0 km/h (0 Bft) S-SW 202 -0,2 C 0,2 C 0,0 km/h (0 Bft)
23.11.2013 17:55 0,2 C 97 % 1011,8 hPa 0,0 l/m 0,0 km/h (0 Bft) S-SW 202 -0,2 C 0,2 C 0,0 km/h (0 Bft)
23.11.2013 18:00 0,2 C 97 % 1011,9 hPa 0,0 l/m 0,0 km/h (0 Bft) S-SW 202 -0,2 C 0,2 C 0,0 km/h (0 Bft)
23.11.2013 18:05 0,2 C 97 % 1011,9 hPa 0,0 l/m 0,0 km/h (0 Bft) S-SW 202 -0,2 C 0,2 C 0,0 km/h (0 Bft)
23.11.2013 18:10 0,2 C 97 % 1011,9 hPa 0,0 l/m 0,0 km/h (0 Bft) S-SW 202 -0,2 C 0,2 C 0,0 km/h (0 Bft)
23.11.2013 18:15 0,2 C 97 % 1011,9 hPa 0,0 l/m 0,0 km/h (0 Bft) S-SW 202 -0,2 C 0,2 C 0,0 km/h (0 Bft)
23.11.2013 18:20 0,2 C 97 % 1012,0 hPa 0,0 l/m 0,0 km/h (0 Bft) S-SW 202 -0,2 C 0,2 C 0,0 km/h (0 Bft)
23.11.2013 18:25 0,2 C 97 % 1012,0 hPa 0,0 l/m 0,0 km/h (0 Bft) S-SW 202 -0,2 C 0,2 C 0,0 km/h (0 Bft)
23.11.2013 18:30 0,1 C 97 % 1012,0 hPa 0,0 l/m 0,0 km/h (0 Bft) S-SW 202 -0,3 C 0,2 C 0,0 km/h (0 Bft)
23.11.2013 18:35 0,1 C 97 % 1012,0 hPa 0,0 l/m 0,0 km/h (0 Bft) S-SW 202 -0,3 C 0,2 C 0,0 km/h (0 Bft)
23.11.2013 18:40 0,2 C 97 % 1011,9 hPa 0,0 l/m 0,0 km/h (0 Bft) S-SW 202 -0,2 C 0,2 C 0,0 km/h (0 Bft)
23.11.2013 18:45 0,2 C 97 % 1011,9 hPa 0,0 l/m 0,0 km/h (0 Bft) S-SW 202 -0,2 C 0,2 C 0,0 km/h (0 Bft)
23.11.2013 18:50 0,2 C 97 % 1011,9 hPa 0,0 l/m 0,0 km/h (0 Bft) S-SW 202 -0,2 C 0,2 C 0,0 km/h (0 Bft)
23.11.2013 18:55 0,2 C 97 % 1011,9 hPa 0,0 l/m 0,0 km/h (0 Bft) S-SW 202 -0,2 C 0,2 C 0,0 km/h (0 Bft)
23.11.2013 19:00 0,2 C 97 % 1012,1 hPa 0,0 l/m 0,0 km/h (0 Bft) S-SW 202 -0,2 C 0,2 C 0,0 km/h (0 Bft)
23.11.2013 19:05 0,2 C 97 % 1012,1 hPa 0,0 l/m 0,0 km/h (0 Bft) S-SW 202 -0,2 C 0,2 C 0,0 km/h (0 Bft)
23.11.2013 19:10 0,2 C 97 % 1012,1 hPa 0,0 l/m 0,0 km/h (0 Bft) S-SW 202 -0,2 C 0,2 C 0,0 km/h (0 Bft)
23.11.2013 19:15 0,2 C 97 % 1012,1 hPa 0,0 l/m 0,0 km/h (0 Bft) S-SW 202 -0,2 C 0,2 C 0,0 km/h (0 Bft)
23.11.2013 19:20 0,2 C 97 % 1012,0 hPa 0,0 l/m 0,0 km/h (0 Bft) S-SW 202 -0,2 C 0,2 C 0,0 km/h (0 Bft)
23.11.2013 19:25 0,2 C 97 % 1012,0 hPa 0,0 l/m 0,0 km/h (0 Bft) S-SW 202 -0,2 C 0,2 C 0,0 km/h (0 Bft)
23.11.2013 19:30 0,2 C 97 % 1012,0 hPa 0,0 l/m 0,0 km/h (0 Bft) S-SW 202 -0,2 C 0,2 C 0,0 km/h (0 Bft)
23.11.2013 19:35 0,2 C 97 % 1012,0 hPa 0,0 l/m 0,0 km/h (0 Bft) S-SW 202 -0,2 C 0,2 C 0,0 km/h (0 Bft)
23.11.2013 19:40 0,1 C 97 % 1012,0 hPa 0,0 l/m 0,0 km/h (0 Bft) S-SW 202 -0,3 C 0,2 C 0,0 km/h (0 Bft)
23.11.2013 19:45 0,1 C 97 % 1012,0 hPa 0,0 l/m 0,0 km/h (0 Bft) S-SW 202 -0,3 C 0,2 C 0,0 km/h (0 Bft)
23.11.2013 19:50 0,1 C 97 % 1012,0 hPa 0,0 l/m 0,0 km/h (0 Bft) S-SW 202 -0,3 C 0,2 C 0,0 km/h (0 Bft)
23.11.2013 19:55 0,1 C 97 % 1012,0 hPa 0,0 l/m 0,0 km/h (0 Bft) S-SW 202 -0,3 C 0,2 C 0,0 km/h (0 Bft)
23.11.2013 20:00 0,1 C 97 % 1011,9 hPa 0,0 l/m 0,0 km/h (0 Bft) S-SW 202 -0,3 C 0,2 C 0,0 km/h (0 Bft)
23.11.2013 20:05 0,1 C 97 % 1011,9 hPa 0,0 l/m 0,0 km/h (0 Bft) S-SW 202 -0,3 C 0,2 C 0,0 km/h (0 Bft)
23.11.2013 20:10 0,1 C 97 % 1011,9 hPa 0,0 l/m 0,0 km/h (0 Bft) S-SW 202 -0,3 C 0,2 C 0,0 km/h (0 Bft)
23.11.2013 20:15 0,1 C 97 % 1011,9 hPa 0,0 l/m 0,0 km/h (0 Bft) S-SW 202 -0,3 C 0,2 C 0,0 km/h (0 Bft)
23.11.2013 20:20 0,1 C 97 % 1011,9 hPa 0,0 l/m 0,0 km/h (0 Bft) S-SW 202 -0,3 C 0,2 C 0,0 km/h (0 Bft)
23.11.2013 20:25 0,1 C 97 % 1011,8 hPa 0,0 l/m 0,0 km/h (0 Bft) S-SW 202 -0,3 C 0,2 C 0,0 km/h (0 Bft)
23.11.2013 20:30 0,2 C 97 % 1011,8 hPa 0,0 l/m 0,0 km/h (0 Bft) S-SW 202 -0,2 C 0,2 C 0,0 km/h (0 Bft)
23.11.2013 20:35 0,2 C 97 % 1011,8 hPa 0,0 l/m 0,0 km/h (0 Bft) S-SW 202 -0,2 C 0,2 C 0,0 km/h (0 Bft)
23.11.2013 20:40 0,1 C 97 % 1011,8 hPa 0,0 l/m 0,0 km/h (0 Bft) S-SW 202 -0,3 C 0,2 C 0,0 km/h (0 Bft)
23.11.2013 20:45 0,1 C 97 % 1012,0 hPa 0,0 l/m 0,0 km/h (0 Bft) S-SW 202 -0,3 C 0,2 C 0,0 km/h (0 Bft)
23.11.2013 20:50 0,1 C 97 % 1012,0 hPa 0,0 l/m 0,0 km/h (0 Bft) S-SW 202 -0,3 C 0,2 C 0,0 km/h (0 Bft)
23.11.2013 20:55 0,2 C 97 % 1012,0 hPa 0,0 l/m 0,0 km/h (0 Bft) S-SW 202 -0,2 C 0,2 C 0,0 km/h (0 Bft)
23.11.2013 21:00 0,2 C 98 % 1012,0 hPa 0,0 l/m 0,0 km/h (0 Bft) S-SW 202 -0,1 C 0,2 C 0,0 km/h (0 Bft)
23.11.2013 21:05 0,2 C 98 % 1011,9 hPa 0,0 l/m 0,0 km/h (0 Bft) S-SW 202 -0,1 C 0,2 C 0,0 km/h (0 Bft)
23.11.2013 21:10 0,1 C 98 % 1011,9 hPa 0,0 l/m 0,0 km/h (0 Bft) S-SW 202 -0,2 C 0,2 C 0,0 km/h (0 Bft)
23.11.2013 21:15 0,1 C 98 % 1011,9 hPa 0,0 l/m 0,0 km/h (0 Bft) S-SW 202 -0,2 C 0,2 C 0,0 km/h (0 Bft)
23.11.2013 21:20 0,1 C 98 % 1011,9 hPa 0,0 l/m 0,0 km/h (0 Bft) S-SW 202 -0,2 C 0,2 C 0,0 km/h (0 Bft)
23.11.2013 21:25 0,2 C 98 % 1012,0 hPa 0,0 l/m 0,0 km/h (0 Bft) S-SW 202 -0,1 C 0,2 C 0,0 km/h (0 Bft)
23.11.2013 21:30 0,2 C 98 % 1012,0 hPa 0,0 l/m 0,0 km/h (0 Bft) S-SW 202 -0,1 C 0,2 C 0,0 km/h (0 Bft)
23.11.2013 21:35 0,2 C 98 % 1012,0 hPa 0,0 l/m 0,0 km/h (0 Bft) S-SW 202 -0,1 C 0,2 C 0,0 km/h (0 Bft)
23.11.2013 21:40 0,2 C 98 % 1012,0 hPa 0,0 l/m 0,0 km/h (0 Bft) S-SW 202 -0,1 C 0,2 C 0,0 km/h (0 Bft)
23.11.2013 21:43 0,2 C 98 % 1011,9 hPa 0,0 l/m 0,0 km/h (0 Bft) S-SW 202 -0,1 C 0,2 C 0,0 km/h (0 Bft)
23.11.2013 21:45 0,1 C 98 % 1011,9 hPa 0,0 l/m 0,0 km/h (0 Bft) S-SW 202 -0,2 C 0,2 C 0,0 km/h (0 Bft)
23.11.2013 21:50 0,1 C 98 % 1011,9 hPa 0,0 l/m 0,0 km/h (0 Bft) S-SW 202 -0,2 C 0,2 C 0,0 km/h (0 Bft)
23.11.2013 21:55 0,1 C 98 % 1011,9 hPa 0,0 l/m 0,0 km/h (0 Bft) S-SW 202 -0,2 C 0,2 C 0,0 km/h (0 Bft)
23.11.2013 22:00 0,1 C 98 % 1012,1 hPa 0,0 l/m 0,0 km/h (0 Bft) S-SW 202 -0,2 C 0,2 C 0,0 km/h (0 Bft)
23.11.2013 22:05 0,1 C 98 % 1012,1 hPa 0,0 l/m 0,0 km/h (0 Bft) S-SW 202 -0,2 C 0,2 C 0,0 km/h (0 Bft)
23.11.2013 22:10 0,1 C 98 % 1012,1 hPa 0,0 l/m 0,0 km/h (0 Bft) S-SW 202 -0,2 C 0,2 C 0,0 km/h (0 Bft)
23.11.2013 22:15 0,1 C 98 % 1012,1 hPa 0,0 l/m 0,0 km/h (0 Bft) S-SW 202 -0,2 C 0,2 C 0,0 km/h (0 Bft)
23.11.2013 22:20 0,1 C 98 % 1012,1 hPa 0,0 l/m 0,0 km/h (0 Bft) S-SW 202 -0,2 C 0,2 C 0,0 km/h (0 Bft)
23.11.2013 22:25 0,1 C 98 % 1012,1 hPa 0,0 l/m 0,0 km/h (0 Bft) S-SW 202 -0,2 C 0,2 C 0,0 km/h (0 Bft)
23.11.2013 22:30 0,1 C 98 % 1012,1 hPa 0,0 l/m 0,0 km/h (0 Bft) S-SW 202 -0,2 C 0,2 C 0,0 km/h (0 Bft)
23.11.2013 22:35 0,1 C 98 % 1012,1 hPa 0,0 l/m 0,0 km/h (0 Bft) S-SW 202 -0,2 C 0,2 C 0,0 km/h (0 Bft)
23.11.2013 22:40 0,1 C 98 % 1011,9 hPa 0,0 l/m 0,0 km/h (0 Bft) S-SW 202 -0,2 C 0,2 C 0,0 km/h (0 Bft)
23.11.2013 22:45 0,2 C 98 % 1011,9 hPa 0,0 l/m 0,0 km/h (0 Bft) S-SW 202 -0,1 C 0,2 C 0,0 km/h (0 Bft)
23.11.2013 22:50 0,2 C 98 % 1011,9 hPa 0,0 l/m 0,0 km/h (0 Bft) S-SW 202 -0,1 C 0,2 C 0,0 km/h (0 Bft)
23.11.2013 22:55 0,1 C 98 % 1011,9 hPa 0,0 l/m 0,0 km/h (0 Bft) S-SW 202 -0,2 C 0,2 C 0,0 km/h (0 Bft)
23.11.2013 23:00 0,2 C 98 % 1012,2 hPa 0,0 l/m 0,0 km/h (0 Bft) S-SW 202 -0,1 C 0,2 C 0,0 km/h (0 Bft)
23.11.2013 23:05 0,2 C 98 % 1012,2 hPa 0,0 l/m 0,0 km/h (0 Bft) S-SW 202 -0,1 C 0,2 C 0,0 km/h (0 Bft)
23.11.2013 23:10 0,2 C 98 % 1012,2 hPa 0,0 l/m 0,0 km/h (0 Bft) S-SW 202 -0,1 C 0,2 C 0,0 km/h (0 Bft)
23.11.2013 23:15 0,2 C 98 % 1012,2 hPa 0,0 l/m 0,0 km/h (0 Bft) S-SW 202 -0,1 C 0,2 C 0,0 km/h (0 Bft)
23.11.2013 23:20 0,1 C 98 % 1012,2 hPa 0,0 l/m 0,0 km/h (0 Bft) S-SW 202 -0,2 C 0,2 C 0,0 km/h (0 Bft)
23.11.2013 23:25 0,1 C 98 % 1012,2 hPa 0,0 l/m 0,0 km/h (0 Bft) S-SW 202 -0,2 C 0,2 C 0,0 km/h (0 Bft)
23.11.2013 23:30 0,1 C 98 % 1012,2 hPa 0,0 l/m 0,0 km/h (0 Bft) S-SW 202 -0,2 C 0,2 C 0,0 km/h (0 Bft)
23.11.2013 23:35 0,1 C 98 % 1012,2 hPa 0,0 l/m 0,0 km/h (0 Bft) S-SW 202 -0,2 C 0,2 C 0,0 km/h (0 Bft)
23.11.2013 23:40 0,1 C 98 % 1012,2 hPa 0,0 l/m 0,0 km/h (0 Bft) S-SW 202 -0,2 C 0,2 C 0,0 km/h (0 Bft)
23.11.2013 23:45 0,1 C 98 % 1012,2 hPa 0,0 l/m 0,0 km/h (0 Bft) S-SW 202 -0,2 C 0,2 C 0,0 km/h (0 Bft)
23.11.2013 23:50 0,1 C 98 % 1012,2 hPa 0,0 l/m 0,0 km/h (0 Bft) S-SW 202 -0,2 C 0,2 C 0,0 km/h (0 Bft)
23.11.2013 23:55 0,2 C 98 % 1012,2 hPa 0,0 l/m 0,0 km/h (0 Bft) S-SW 202 -0,1 C 0,2 C 0,0 km/h (0 Bft)
_ Min-Zeit 23:50 03:00 05:40 - 23:55 - - 06:30 23:55 23:55
Minimum _ 0,1 C 88 % 1008,2 hPa - 0,0 km/h (0 Bft) - - -1,0 C 0,2 C 0,0 km/h (0 Bft)
_ Max-Zeit 13:55 23:55 23:55 23:55 00:10 - - 13:55 00:30 00:05
Maximum _ 1,7 C 98 % 1012,2 hPa 0,0 l/m 1,3 km/h
N-NW (1 Bft)
- - 1,1 C 1,6 C 3,1 km/h
N-NW (1 Bft)
Durchschnitt _ 0,7 C 94 % 1009,8 hPa #0,0 l/m 0,0 km/h (0 Bft) N-NW - -0,1 C 0,5 C 0,0 km/h (0 Bft)